Lake Martin Weather Center

Moon Phase Calendar



Lake Martin Water Level
Online Cameras

 


      

Current Conditions in Dadeville
6/29/2022 2:32:40 PM

89°F
Feels Like 96
Clear
Humidity
58%
Pressure
30.15"
Wind
0
Dew Point
72°F
UV Index
4/10 (Moderate)
Visibility
6 mi

Hourly Forecast

Date & Time Wed, Jun 29
2:00 PM
Wed, Jun 29
3:00 PM
Wed, Jun 29
4:00 PM
Wed, Jun 29
5:00 PM
Wed, Jun 29
6:00 PM
Wed, Jun 29
7:00 PM
Wed, Jun 29
8:00 PM
Wed, Jun 29
9:00 PM
Wed, Jun 29
10:00 PM
Wed, Jun 29
11:00 PM
Thu, Jun 30
12:00 AM
Thu, Jun 30
1:00 AM
Thu, Jun 30
2:00 AM
Thu, Jun 30
3:00 AM
Thu, Jun 30
4:00 AM
Thu, Jun 30
5:00 AM
Thu, Jun 30
6:00 AM
Thu, Jun 30
7:00 AM
Thu, Jun 30
8:00 AM
Thu, Jun 30
9:00 AM
Thu, Jun 30
10:00 AM
Thu, Jun 30
11:00 AM
Thu, Jun 30
12:00 PM
Thu, Jun 30
1:00 PM
Thu, Jun 30
2:00 PM
Thu, Jun 30
3:00 PM
Thu, Jun 30
4:00 PM
Thu, Jun 30
5:00 PM
Thu, Jun 30
6:00 PM
Thu, Jun 30
7:00 PM
Thu, Jun 30
8:00 PM
Thu, Jun 30
9:00 PM
Thu, Jun 30
10:00 PM
Thu, Jun 30
11:00 PM
Fri, Jul 1
12:00 AM
Fri, Jul 1
1:00 AM
Fri, Jul 1
2:00 AM
Fri, Jul 1
3:00 AM
Fri, Jul 1
4:00 AM
Fri, Jul 1
5:00 AM
Fri, Jul 1
6:00 AM
Fri, Jul 1
7:00 AM
Fri, Jul 1
8:00 AM
Fri, Jul 1
9:00 AM
Fri, Jul 1
10:00 AM
Fri, Jul 1
11:00 AM
Fri, Jul 1
12:00 PM
Fri, Jul 1
1:00 PM
Condition
Rain

Clear

Clouds

Rain

Rain

Rain

Rain

Rain

Rain

Rain

Clouds

Clouds

Clouds

Clouds

Clouds

Clouds

Clouds

Clouds

Clouds

Clouds

Clouds

Clouds

Clouds

Clouds

Clouds

Clouds

Clouds

Clouds

Clouds

Clouds

Clouds

Rain

Rain

Rain

Clouds

Clouds

Clouds

Clouds

Clouds

Clouds

Clouds

Clouds

Clouds

Clouds

Clouds

Rain

Rain

Rain
Temperature 89°F89°F89°F88°F81°F75°F70°F70°F70°F69°F70°F70°F70°F70°F70°F69°F69°F71°F73°F74°F77°F79°F78°F77°F76°F77°F77°F77°F79°F76°F74°F72°F71°F70°F70°F70°F69°F69°F69°F69°F69°F71°F73°F76°F79°F80°F81°F82°F
Feels Like 96°F96°F95°F94°F86°F77°F72°F71°F71°F70°F71°F71°F71°F71°F71°F71°F71°F72°F75°F76°F78°F79°F80°F78°F78°F78°F78°F78°F79°F77°F75°F73°F73°F71°F72°F71°F71°F71°F70°F70°F70°F72°F74°F77°F79°F85°F86°F88°F
Cloudiness 20%0%20%39%58%77%84%92%94%96%97%97%100%100%100%100%100%100%100%100%100%100%100%100%100%100%100%100%100%100%99%97%92%82%82%85%99%99%100%100%100%100%100%100%100%100%90%91%
Visibility 6 mi6 mi6 mi6 mi5 mi6 mi6 mi4 mi6 mi6 mi6 mi6 mi6 mi6 mi6 mi6 mi6 mi6 mi6 mi6 mi6 mi6 mi6 mi6 mi6 mi6 mi6 mi6 mi6 mi6 mi6 mi6 mi6 mi6 mi6 mi6 mi6 mi6 mi6 mi6 mi6 mi6 mi6 mi6 mi6 mi3 mi4 mi6 mi
Precipitation 60%65%68%78%82%93%93%99%95%95%73%73%10%10%5%1%1%1%4%4%3%3%6%13%26%27%27%27%23%30%19%29%54%75%72%72%5%6%13%6%12%12%14%11%14%38%48%69%
Humidity 55%58%57%57%73%88%97%98%97%97%97%97%96%96%96%97%97%95%89%87%80%76%78%82%85%83%83%82%78%83%87%91%94%97%97%97%96%97%97%97%97%96%92%85%75%76%79%74%
Dew Point 71°F72°F72°F71°F72°F72°F69°F69°F69°F68°F68°F68°F68°F68°F68°F68°F68°F69°F70°F70°F70°F70°F70°F71°F71°F71°F71°F71°F71°F70°F70°F69°F69°F69°F69°F68°F68°F68°F68°F68°F68°F69°F70°F70°F70°F71°F73°F73°F
Pressure 30.15"30.15"30.15"30.12"30.12"30.12"30.12"30.18"30.21"30.21"30.18"30.18"30.15"30.15"30.15"30.15"30.15"30.18"30.18"30.18"30.18"30.18"30.18"30.15"30.15"30.12"30.12"30.09"30.09"30.09"30.09"30.12"30.15"30.15"30.12"30.12"30.12"30.09"30.09"30.09"30.09"30.12"30.12"30.15"30.12"30.12"30.12"30.09"
Wind Speed 3.8 mph0.9 mph4.2 mph4.8 mph9.3 mph8.6 mph2.3 mph4.9 mph5.5 mph5 mph3 mph2.5 mph1.5 mph2.3 mph3.7 mph4.1 mph4.2 mph4 mph4.6 mph4.4 mph4.4 mph3.6 mph3.2 mph3.9 mph3.6 mph2.9 mph3 mph4.2 mph3.9 mph5.8 mph3.5 mph4 mph3.8 mph2.2 mph2.9 mph2 mph2.6 mph4.1 mph4 mph3.7 mph4 mph4 mph4.9 mph4.4 mph4 mph2.1 mph2 mph1.6 mph
Wind
Direction
160°
SSE
133°
SE
359°
N
78°
ENE
136°
SE
116°
ESE
116°
ESE
154°
SSE
155°
SSE
146°
SE
140°
SE
74°
ENE
93°
E
51°
NE
73°
ENE
65°
ENE
87°
E
93°
E
90°
E
93°
E
103°
ESE
127°
SE
178°
S
190°
S
179°
S
137°
SE
96°
E
51°
NE
106°
ESE
109°
ESE
67°
ENE
65°
ENE
116°
ESE
157°
SSE
129°
SE
161°
SSE
86°
E
60°
ENE
42°
NE
54°
NE
68°
ENE
74°
ENE
77°
ENE
73°
ENE
76°
ENE
119°
ESE
192°
SSW
235°
SW

Daily Forecast

Date High Low Precip. Humidity
Today
Jun 29

Rain
89 °F
69 °F
99%
55%
Thursday
Jun 30

Rain
79 °F
69 °F
75%
78%
Friday
Jul 1

Rain
84 °F
69 °F
99%
74%
Saturday
Jul 2

Rain
91 °F
69 °F
99%
47%
Sunday
Jul 3

Rain
90 °F
73 °F
86%
54%
Monday
Jul 4

Rain
95 °F
71 °F
55%
44%
Tuesday
Jul 5

Rain
95 °F
74 °F
88%
41%
Wednesday
Jul 6

Rain
93 °F
75 °F
50%
55%
Thursday
Jul 7

Rain
96 °F
74 °F
86%
45%
Friday
Jul 8

Rain
95 °F
73 °F
100%
45%
Saturday
Jul 9

Rain
84 °F
72 °F
100%
88%
Sunday
Jul 10

Rain
91 °F
70 °F
100%
31%
Monday
Jul 11

Clouds
87 °F
66 °F
0%
37%
Tuesday
Jul 12

Clouds
88 °F
65 °F
0%
30%
Wednesday
Jul 13

Rain
81 °F
61 °F
41%
52%
Thursday
Jul 14

Rain
89 °F
69 °F
71%
58%

Temperature 8-14 Day Outlook



Precipitation 8-14 Day Outlook






About Us
Contact Us
Site Map
Search Site
Advertise With Us
   
www.LakeMartin.com
THE LAKE MARTIN WEBSITE

Copyright 2022, Lakes Online
Privacy    |    Legal